This is the latest recevied weather packets stored in our database for station/object EA3KZ-1. If no packets are shown the sender has not sent any weather packets the latest 10 day(s).
| Time | Temp. | Humidity | Pressure | Rain* | Wind** | Luminosity | Snow |
|---|---|---|---|---|---|---|---|
| 1787919370 | 26.67° C | 31% | 1014 hPa | 0 mm | - | - | - |
| 1787918767 | 26.11° C | 32% | 1013.9 hPa | 0 mm | - | - | - |
| 1787918165 | 26.67° C | 32% | 1014 hPa | 0 mm | - | - | - |
| 1787917562 | 26.11° C | 33% | 1014.1 hPa | 0 mm | - | - | - |
| 1787916960 | 26.11° C | 31% | 1014.1 hPa | 0 mm | - | - | - |
| 1787916357 | 25.56° C | 34% | 1014.2 hPa | 0 mm | - | - | - |
| 1787915754 | 25.56° C | 35% | 1014.2 hPa | 0 mm | - | - | - |
| 1787915152 | 25.56° C | 35% | 1014.2 hPa | 0 mm | - | - | - |
| 1787914549 | 25.56° C | 34% | 1014.1 hPa | 0 mm | - | - | - |
| 1787913946 | 25° C | 34% | 1013.9 hPa | 0 mm | - | - | - |
| 1787913344 | 24.44° C | 35% | 1013.7 hPa | 0 mm | - | - | - |
| 1787912741 | 24.44° C | 35% | 1013.7 hPa | 0 mm | - | - | - |
| 1787912139 | 24.44° C | 35% | 1013.6 hPa | 0 mm | - | - | - |
| 1787911536 | 25° C | 35% | 1013.9 hPa | 0 mm | - | - | - |
| 1787910933 | 25° C | 36% | 1013.8 hPa | 0 mm | - | - | - |
| 1787910331 | 24.44° C | 35% | 1014 hPa | 0 mm | - | - | - |
| 1787909728 | 24.44° C | 36% | 1013.8 hPa | 0 mm | - | - | - |
| 1787909126 | 23.89° C | 36% | 1013.9 hPa | 0 mm | - | - | - |
| 1787908523 | 23.89° C | 35% | 1013.8 hPa | 0 mm | - | - | - |
| 1787907920 | 23.89° C | 35% | 1013.6 hPa | 0 mm | - | - | - |
| 1787907318 | 23.33° C | 34% | 1013.7 hPa | 0 mm | - | - | - |
| 1787906716 | 23.33° C | 35% | 1013.6 hPa | 0 mm | - | - | - |
| 1787906173 | 23.33° C | 38% | 1013.6 hPa | 0 mm | - | - | - |
| 1787905571 | 23.33° C | 38% | 1013.3 hPa | 0 mm | - | - | - |
| 1787904968 | 23.33° C | 39% | 1013.1 hPa | 0 mm | - | - | - |
* Rain latest hour (hover to see other rain measurements)
** Current wind speed in m/s (hover to see current wind gust speed)